TimeGMT,TemperatureF,Dew PointF,Humidity,Sea Level PressureIn,VisibilityMPH,Wind Direction,Wind SpeedMPH,Gust SpeedMPH,PrecipitationIn,Events,Conditions,WindDirDegrees,DateUTC
12:20 AM,30.2,28.4,93,29.74,2.8,WSW,3.5,-,N/A,,Mostly Cloudy,250,2013-03-05 00:20:00
12:50 AM,32.0,30.2,93,29.74,2.5,West,3.5,-,N/A,,Overcast,270,2013-03-05 00:50:00
1:20 AM,30.2,30.2,100,29.74,2.5,Calm,Calm,-,N/A,,Overcast,0,2013-03-05 01:20:00
1:50 AM,28.4,26.6,93,29.74,-9999.0,WSW,4.6,-,N/A,,Haze,240,2013-03-05 01:50:00
2:20 AM,30.2,28.4,93,29.74,-9999.0,Calm,Calm,-,N/A,,Overcast,0,2013-03-05 02:20:00
2:50 AM,32.0,30.2,93,29.71,-9999.0,Variable,3.5,-,N/A,,Haze,0,2013-03-05 02:50:00
3:20 AM,32.0,30.2,93,29.71,-9999.0,NW,2.3,-,N/A,,Overcast,320,2013-03-05 03:20:00
3:50 AM,32.0,32.0,100,29.71,-9999.0,Calm,Calm,-,N/A,,Haze,0,2013-03-05 03:50:00
4:20 AM,32.0,30.2,93,29.71,3.1,East,3.5,-,N/A,,Haze,100,2013-03-05 04:20:00
4:50 AM,32.0,32.0,100,29.71,3.1,SE,3.5,-,N/A,,Mostly Cloudy,140,2013-03-05 04:50:00
5:20 AM,32.0,30.2,93,29.71,3.1,NE,2.3,-,N/A,,Scattered Clouds,50,2013-03-05 05:20:00
5:50 AM,32.0,30.2,93,29.71,3.1,NE,3.5,-,N/A,,Scattered Clouds,50,2013-03-05 05:50:00
6:20 AM,30.2,30.2,100,29.71,2.8,NNE,3.5,-,N/A,,Mist,20,2013-03-05 06:20:00
6:50 AM,28.4,26.6,93,29.71,2.2,Calm,Calm,-,N/A,,Mist,0,2013-03-05 06:50:00
7:20 AM,26.6,26.6,100,29.71,2.2,SW,3.5,-,N/A,,Mist,220,2013-03-05 07:20:00
7:50 AM,26.6,26.6,100,29.71,2.2,West,2.3,-,N/A,,Mist,260,2013-03-05 07:50:00
8:20 AM,30.2,30.2,100,29.71,2.5,Calm,Calm,-,N/A,,Mist,0,2013-03-05 08:20:00
8:50 AM,32.0,32.0,100,29.71,2.5,NW,2.3,-,N/A,,Mist,310,2013-03-05 08:50:00
9:20 AM,35.6,33.8,93,29.71,-9999.0,Calm,Calm,-,N/A,,Mist,0,2013-03-05 09:20:00
9:50 AM,37.4,33.8,87,29.71,-9999.0,Variable,2.3,-,N/A,,Haze,0,2013-03-05 09:50:00
10:20 AM,39.2,33.8,81,29.71,-9999.0,Variable,3.5,-,N/A,,Haze,0,2013-03-05 10:20:00
10:50 AM,41.0,33.8,76,29.71,3.1,Variable,2.3,-,N/A,,Haze,0,2013-03-05 10:50:00
11:50 AM,44.6,35.6,71,29.71,3.1,Variable,2.3,-,N/A,,Haze,0,2013-03-05 11:50:00
12:20 PM,44.6,33.8,66,29.68,3.7,Variable,2.3,-,N/A,,Unknown,0,2013-03-05 12:20:00
12:50 PM,46.4,33.8,62,29.68,3.7,Calm,Calm,-,N/A,,Unknown,0,2013-03-05 12:50:00
1:20 PM,46.4,33.8,62,29.68,4.3,Variable,2.3,-,N/A,,Unknown,0,2013-03-05 13:20:00
1:50 PM,48.2,33.8,58,29.68,5.0,Variable,3.5,-,N/A,,Unknown,0,2013-03-05 13:50:00
2:20 PM,48.2,32.0,54,29.65,6.2,Variable,2.3,-,N/A,,Unknown,0,2013-03-05 14:20:00
2:50 PM,48.2,33.8,58,29.65,5.6,Variable,3.5,-,N/A,,Partly Cloudy,0,2013-03-05 14:50:00
3:20 PM,48.2,33.8,58,29.65,6.2,Variable,2.3,-,N/A,,Unknown,0,2013-03-05 15:20:00
3:50 PM,48.2,32.0,54,29.65,6.2,Variable,2.3,-,N/A,,Partly Cloudy,0,2013-03-05 15:50:00
4:20 PM,48.2,33.8,58,29.65,6.2,NNE,4.6,-,N/A,,Partly Cloudy,20,2013-03-05 16:20:00
4:50 PM,46.4,33.8,62,29.65,6.2,North,5.8,-,N/A,,Partly Cloudy,10,2013-03-05 16:50:00
5:20 PM,44.6,33.8,66,29.65,-9999.0,North,4.6,-,N/A,,Clear,10,2013-03-05 17:20:00
5:50 PM,42.8,33.8,70,29.65,-9999.0,North,4.6,-,N/A,,Clear,10,2013-03-05 17:50:00
6:20 PM,39.2,32.0,75,29.65,-9999.0,NE,6.9,-,N/A,,Clear,40,2013-03-05 18:20:00
6:50 PM,37.4,32.0,81,29.65,-9999.0,NE,6.9,-,N/A,,Clear,50,2013-03-05 18:50:00
7:20 PM,37.4,32.0,81,29.65,-9999.0,ENE,5.8,-,N/A,,Clear,60,2013-03-05 19:20:00
7:50 PM,39.2,32.0,75,29.65,5.6,ENE,5.8,-,N/A,,Unknown,70,2013-03-05 19:50:00
8:20 PM,39.2,32.0,75,29.65,5.6,ENE,10.4,-,N/A,,Unknown,60,2013-03-05 20:20:00
8:50 PM,39.2,32.0,75,29.68,4.3,ENE,8.1,-,N/A,,Unknown,70,2013-03-05 20:50:00
9:20 PM,37.4,32.0,81,29.68,3.7,ENE,8.1,-,N/A,,Unknown,60,2013-03-05 21:20:00
9:50 PM,37.4,32.0,81,29.68,3.7,ENE,9.2,-,N/A,,Unknown,60,2013-03-05 21:50:00
10:20 PM,37.4,32.0,81,29.71,3.1,ENE,8.1,-,N/A,,Haze,70,2013-03-05 22:20:00
10:50 PM,37.4,33.8,87,29.68,3.1,ENE,8.1,-,N/A,,Haze,60,2013-03-05 22:50:00
11:20 PM,35.6,33.8,93,29.68,2.8,ENE,8.1,-,N/A,,Haze,70,2013-03-05 23:20:00
11:50 PM,37.4,33.8,87,29.68,3.1,East,9.2,-,N/A,,Haze,90,2013-03-05 23:50:00